Voltar ao catálogo

STARLINK-1664

AtivoComunicaçõesVLEO
NORAD 46553·PAYLOAD·🇺🇸 United States

Lançado Oct 6, 2020 de Cape Canaveral Space Force Station

Loading…

Próximas Passagens (próximas 24 horas)

TLE

AtualizadoSource: CelesTrak SupGP

Época: Sep 15, 2026, 02:06 UTC

1 46553C 20070X   26258.08798611  .00095000  00000+0  81957-3 0  2589
2 46553  53.0371 300.4806 0007408   9.9943 145.1942 15.68501415    11

Acompanhe STARLINK-1664 em tempo real com AllMySat

Download on the App Store